Simultaneous Nadir Overpasses (SNOs) Predictions

Prediction of SNOs between GOES-15 and METOP-C Satellite Orbit:

Table of predicted SNOs for the next 14.0 days since TLE Epoch: 11/22/2020
Index Date Time (GOES-15) GOES-15 Lat,Lon METOP-C Lat,Lon Distance(km) Time Diff (sec)
1 11/22/2020 06:04:18 -0.23,-127.67 -0.40,-128.45 88.96 80
2 11/23/2020 05:46:20 -0.23,-127.71 0.73,-123.46 484.15 80
3 11/24/2020 18:02:33 0.23,-127.72 0.30,-128.02 34.86 80
4 11/27/2020 06:03:35 -0.23,-127.85 -0.20,-127.62 24.74 80
5 11/28/2020 18:19:49 0.22,-127.85 1.16,-132.20 494.89 80
6 11/29/2020 18:01:50 0.23,-127.88 0.09,-127.20 77.50 80
7 12/01/2020 06:18:11 -0.22,-127.96 -1.06,-131.80 437.17 80
8 12/02/2020 06:00:12 -0.23,-127.99 0.01,-126.80 134.93 80
9 12/03/2020 18:16:25 0.22,-127.99 1.00,-131.37 385.80 80
10 12/04/2020 17:58:27 0.24,-128.01 -0.14,-126.38 185.85 80
